Location: Noordwijk
(52.2400°N, 4.4500°E)
Time: 14:14:54
(UTC+00:00)

ISS - Visible Passes

Search period start: 09 December 2023 00:00
Search period end: 19 December 2023 00:00
Orbit: 415 x 417 km, 51.6° (Epoch: 09 December)

Date Brightness Start Highest point End Pass type
(mag) Time Alt. Az. Time Alt. Az. Time Alt. Az.
16 Dec -0.7 06:43:58 10° S 06:46:19 18° SE 06:48:41 10° E visible
17 Dec -0.5 05:56:04 10° SSE 05:57:30 12° SE 05:58:57 10° ESE visible
18 Dec -1.9 06:41:34 10° SW 06:44:35 32° SSE 06:47:37 10° E visible
